OpenBCM V2.0.3 (Linux)

Packet Radio Mailbox

IZ3LSV

[San Dona' di P. JN]

 Login: GUEST





  
I0OJJ  > AMSAT    24.06.26 07:11l 322 Lines 15353 Bytes #999 (0) @ WW
BID : A5PZ2_I0OJJ
Read: GUEST
Subj: 2Line Orbital Elements
Path: IZ3LSV<ED1ZAC<LU4ECL<LU9DCE<VE3CGR<VE3TOK<IR0AAB<I0OJJ
Sent: 260621/0027z @:I0OJJ.ITA.EU [Rome] $:A5PZ2_I0OJJ

>From i0ojj@i0ojj.ampr.org Sun Jun 21 02:27:45 2026
Received: from i0ojj.ampr.org by i0ojj.ampr.org (JNOS2.0q.1) with SMTP
	id AA17063102 ; Sun, 21 Jun 2026 02:27:45 +0200
Received: by i0ojj.ampr.org with SMTP
	id AA17063099 ; Sun, 21 Jun 2026 02:25:46 +0200
Message-Id: <17063100@i0ojj.ampr.org>
>From: i0ojj@i0ojj.ampr.org

SB KEPS @ AMSAT  $ORB26172.1
2Line Orbital Elements 26172.AMSAT

QST de W1STR

AMSAT Orbital Elements for Amateur Satellites in TLE Format
>From Orbital Analysis Office
New England Sci-Tech STEM Education Center
Natick MA June 21, 2026
To all radio amateurs


These element sets describe the orbits of various satellites 
in use by the amateur radio community. For details see:
www.amsat.org/keplerian-elements-formats/

A daily update of element sets is available at:
www.amsat.org/tle/daily-bulletin.txt
or without bulletin text:
www.amsat.org/tle/dailytle.txt


AO-07
1 07530U 74089B   26171.32384949 -.00000048  00000-0 -10319-4 0  9994
2 07530 101.9899 184.6033 0012609 124.3014 247.3322 12.53698149360912
UO-11
1 14781U 84021B   26171.44314262  .00001042  00000-0  11163-3 0  9991
2 14781  97.8059 136.9814 0007936 162.0618 198.0882 14.90789882257615
LO-19
1 20442U 90005G   26171.32155512  .00000068  00000-0  41169-4 0  9996
2 20442  98.8848 193.2136 0011289 191.6338 168.4586 14.34123955902844
AO-27
1 22825U 93061C   26171.42614367  .00000064  00000-0  41444-4 0  9999
2 22825  98.6879 238.8386 0009542  91.4815 268.7461 14.30943014707461
FO-29
1 24278U 96046B   26171.34242250 -.00000016  00000-0  16133-4 0  9993
2 24278  98.5237  19.7822 0350925  88.2682 275.8612 13.53274552473592
GO-32
1 25397U 98043D   26171.43605319  .00000032  00000-0  33890-4 0  9990
2 25397  99.0068 164.2767 0001219 156.5266 203.5967 14.24428915451795
ISS
1 25544U 98067A   26171.41461525  .00008813  00000-0  16600-3 0  9991
2 25544  51.6327 284.1189 0004557 208.5194 151.5545 15.49333088572250
NO-44
1 26931U 01043C   26171.44204659  .00000049  00000-0  49145-4 0  9990
2 26931  67.0502 235.8536 0006064 264.6719  95.3691 14.31957058290913
SO-50
1 27607U 02058C   26171.45947406  .00000719  00000-0  10244-3 0  9994
2 27607  64.5513 118.8607 0075194 261.8620  97.3951 14.83052787264944
CO-55
1 27844U 03031E   26170.56610412  .00000202  00000-0  10624-3 0  9993
2 27844  98.6736 179.0951 0009689 171.1603 188.9749 14.24336935192018
RS-22
1 27939U 03042A   26171.54547921  .00000219  00000-0  42044-4 0  9993
2 27939  98.3471 355.9986 0009946 257.4942 194.9082 14.73470116216040
CO-65
1 32785U 08021C   26171.43070376  .00004727  00000-0  29901-3 0  9997
2 32785  97.8278 152.9166 0009448  28.6866 331.4880 15.09477800985683
CO-66
1 32791U 08021J   26170.94270999  .00015827  00000-0  50132-3 0  9995
2 32791  97.7524 168.9721 0000692 347.0777  13.0446 15.32829868987716
RS-30
1 32953U 08025A   26171.47854024  .00000042  00000-0  22924-3 0  9996
2 32953  82.5041 353.3919 0018741 306.3614  53.5736 12.43179654820103
SRMSAT
1 37841U 11058D   26171.35085059  .00000352  00000-0  47312-4 0  9991
2 37841  19.9729  40.3181 0011727 238.5935 283.9086 14.11576136758261
ZACUBE-1
1 39417U 13066B   26171.40676969  .00002330  00000-0  18337-3 0  9997
2 39417  97.8070 133.7603 0041215 236.5821 123.1458 15.01203183681216
Delfi-N3xt
1 39428U 13066N   26171.32352793  .00004874  00000-0  42647-3 0  9992
2 39428  97.8333  91.6316 0073876 194.8900 165.0146 14.95104097675099
GOMX-1
1 39430U 13066Q   26171.52252216  .00001345  00000-0  20685-3 0  9994
2 39430  97.6480  11.7742 0130098  67.0031 294.4838 14.69469787670401
LO-74
1 39440U 13066AA  26171.34547412  .00004187  00000-0  38759-3 0  9998
2 39440  97.8908 120.3368 0058172  18.8863 341.4496 14.93786433677462
AO-73
1 39444U 13066AE  26171.43726984  .00004737  00000-0  29523-3 0  9995
2 39444  97.8276 142.9507 0035961 189.5491 170.5058 15.09520967680154
DTUSAT-2
1 40030U 14033W   26170.94581646  .00005960  00000-0  32260-3 0  9993
2 40030  98.0865 168.8476 0006937 214.2385 145.8399 15.15045561653102
LILACSAT-2
1 40908U 15049K   26171.49708373  .00014786  00000-0  25128-3 0  9995
2 40908  97.4641 208.4647 0005750 229.6814 130.3936 15.51537009596263
Horyu-4
1 41340U 16012D   26171.37382522  .00528215  11166-3  10448-2 0  9991
2 41340  30.9842  55.5784 0006572 292.5150  67.4817 15.98761555571321
Lapan A3
1 41603U 16040E   26171.51988109  .00002803  00000-0  89828-4 0  9995
2 41603  97.1492 167.5560 0010473  14.5664 345.5878 15.33122612555325
CAS-2T
1 41847U 16066G   26171.21882669  .00001296  00000-0  18865-3 0  9991
2 41847  98.3821 246.9206 0342870 120.3110 243.2471 14.44702954505236
TechnoSat
1 42829U 17042E   26171.44071003  .00002691  00000-0  19322-3 0  9993
2 42829  97.4297 328.9745 0019198  84.0647 276.2768 15.04979783487190
AO-91
1 43017U 17073E   26171.18457471  .00006691  00000-0  29340-3 0  9990
2 43017  97.4696  38.3374 0149318 318.7924  40.2110 15.12753215465843
S-Net D
1 43186U 18014G   26171.29880828  .00004087  00000-0  21192-3 0  9995
2 43186  97.5356  76.0698 0008631  20.4965 339.6613 15.16696846459235
S-Net B
1 43187U 18014H   26171.44227345  .00003824  00000-0  19866-3 0  9995
2 43187  97.5362  76.1989 0009101  14.9277 345.2223 15.16668142459254
S-Net A
1 43188U 18014J   26171.29766920  .00004140  00000-0  21459-3 0  9999
2 43188  97.5373  76.2647 0008975  16.0073 344.1441 15.16704943459232
S-Net C
1 43189U 18014K   26171.31421336  .00003742  00000-0  19448-3 0  9994
2 43189  97.5390  76.3562 0010128   7.5265 352.6118 15.16659336457788
Ten-Koh
1 43677U 18084G   26171.45254676  .00001314  00000-0  10266-3 0  9991
2 43677  98.0770   3.9542 0011523 104.7855 255.4646 15.02952458416650
PO-101
1 43678U 18084H   26171.50425162  .00001703  00000-0  14036-3 0  9999
2 43678  98.1189   7.8560 0012771 159.6006 200.5729 15.00464204416717
QO-100
1 43700U 18090A   26171.32582803  .00000139  00000-0  00000+0 0  9992
2 43700   0.0162  58.1464 0001829  66.6264 286.8419  1.00272471 27701
MinXSS-2
1 43758U 18099A   26171.45535390  .00031099  00000-0  61393-3 0  9992
2 43758  97.4527 247.8358 0006930 241.7102 118.3448 15.47086323414631
AO-95
1 43770U 18099N   26171.42028350  .00009032  00000-0  34569-3 0  9993
2 43770  97.4379 231.6550 0007644 345.3894  14.7122 15.26768122413714
SNUSat 2
1 43782U 18099AA  26171.09486323  .00006937  00000-0  30769-3 0  9996
2 43782  97.4055 224.4340 0008538 286.2337  73.7960 15.21873725413472
SnugLite
1 43784U 18099AC  26171.41973738  .00009950  00000-0  37540-3 0  9997
2 43784  97.3862 225.6679 0001218 262.4463  97.6638 15.27237635413816
ITASat 1
1 43786U 18099AE  26171.11764083  .00005183  00000-0  24987-3 0  9992
2 43786  97.4025 222.5709 0011788 349.8108  10.2885 15.19087166413356
EAGLET 1
1 43790U 18099AJ  26170.69834225  .00003186  00000-0  18414-3 0  9994
2 43790  97.4228 220.3006 0010408 345.2076  14.8849 15.12954488412716
ESEO
1 43792U 18099AL  26171.37328516  .00001363  00000-0  10205-3 0  9998
2 43792  97.3977 208.6251 0010929 329.3386  30.7201 15.04258251412281
JO-97
1 43803U 18099AX  26171.42320771  .00014139  00000-0  43536-3 0  9990
2 43803  97.4124 234.2689 0004531 246.7819 113.2947 15.33738605414121
Suomi 100
1 43804U 18099AY  26171.41419441  .00010144  00000-0  36823-3 0  9996
2 43804  97.4182 231.7956 0008433 265.0966  94.9311 15.28477327413918
ISAT
1 43879U 18111D   26171.35812858  .00088165  00000-0  86454-3 0  9998
2 43879  97.5871 106.8241 0001652 159.9302 200.2023 15.65800337411660
UWE-4
1 43880U 18111E   26170.73909040  .00028000  00000-0  56934-3 0  9993
2 43880  97.5852  99.2477 0005068 330.7950  29.3015 15.46259003411174
Sparrow
1 43881U 18111F   26171.37163720  .00155211  00000-0  10166-2 0  9993
2 43881  97.6107 112.5154 0004538 117.8281 242.3444 15.75315378411872
Prox-1
1 44339U 19036A   26171.00267406  .00011723  00000-0  11377-2 0  9999
2 44339  23.9947  95.4433 0005845  68.7086 291.4037 14.90666191373893
Taurus 1
1 44530U 19059C   26171.50532457  .00005134  00000-0  82372-3 0  9996
2 44530  98.6425 336.5389 0007268 304.3648  55.6869 14.72124782359138
TO-108
1 44881U 19093C   26171.47769159  .00000502  00000-0  62594-4 0  9999
2 44881  97.7525 243.6297 0015019  77.3301 282.9593 14.86522341351904
RS-44
1 44909U 19096E   26171.44517356  .00000024  00000-0  45367-4 0  9998
2 44909  82.5221 337.5395 0218289 136.5763 225.2766 12.79748893302760
SALSAT
1 46495U 20068K   26170.95810387  .00006379  00000-0  22355-3 0  9996
2 46495  97.8854 174.1914 0007893 296.5001  63.5428 15.29832652315783
CSS (TIANHE-1)
1 48274U 21035A   26171.43213816  .00020661  00000-0  24268-3 0  9991
2 48274  41.4693 302.2526 0007384 105.8714 254.2939 15.60937952293670
CUTE
1 49263U 21088D   26171.26453892  .00137923  93909-5  37887-3 0  9995
2 49263  97.4181 270.8579 0007619 223.6442 136.4230 15.93975753263048
TeikyoSat 4
1 49396U 21102B   26170.97106405  .00001459  00000-0  94715-4 0  9994
2 49396  97.3669 200.3463 0010353 285.6004  74.4082 15.09516085253148
Z-Sat
1 49399U 21102E   26171.55921688  .00003903  00000-0  19309-3 0  9991
2 49399  97.3322 206.7800 0015175 231.6811 128.3060 15.18286502253958
KOSEN 1
1 49402U 21102H   26171.35293286  .00006026  00000-0  23046-3 0  9992
2 49402  97.3184 213.4488 0013547 188.9556 171.1443 15.26870949254503
HO-113
1 50466U 21131B   26171.52556793  .00000255  00000-0  92364-4 0  9998
2 50466  98.4983 263.8974 0005387  89.4278 270.7528 14.41359651235598
SNUGLITE 2
1 52899U 22065F   26171.37922855  .00000681  00000-0  13817-3 0  9994
2 52899  98.2207 316.2040 0007803  23.7444 336.4117 14.64352373211468
UmKA 1 (RS40S)
1 57172U 23091G   26171.38369249  .00005161  00000-0  23636-3 0  9994
2 57172  97.5046 230.0688 0014343 107.7929 252.4872 15.20848788164497
